• In Russia
  • List of Countries
  • For 7 days
  • Water Temperature
  • Satellite Maps
  • Weather Map
  • Weather Widgets
  • user-avatar
    Login

    Hourly Weather Pecel

    Today, 20 October, Friday

    Time Temperature Precipitation Wind Pressure Humidity
    00:00 +12°C° 0 mm 1 mps 741 mmHg 77%
    01:00 +12°C° 0 mm 1 mps 741 mmHg 79%
    02:00 +12°C° 0 mm 1 mps 741 mmHg 80%
    03:00 +11°C° 0 mm 1 mps 741 mmHg 81%
    04:00 +11°C° 0 mm 1 mps 741 mmHg 83%
    05:00 +10°C° 0 mm 0 mps 742 mmHg 82%
    06:00 +10°C° 0 mm 0 mps 742 mmHg 82%
    07:00 +10°C° 0 mm 0 mps 742 mmHg 81%
    08:00 +12°C° 0 mm 0 mps 742 mmHg 73%
    09:00 +14°C° 0 mm 0 mps 743 mmHg 64%
    10:00 +16°C° 0 mm 0 mps 743 mmHg 56%
    11:00 +19°C° 0 mm 1 mps 743 mmHg 51%
    12:00 +20°C° 0 mm 1 mps 743 mmHg 46%
    13:00 +22°C° 0 mm 1 mps 743 mmHg 41%
    14:00 +21°C° 0 mm 1 mps 742 mmHg 42%
    15:00 +21°C° 0 mm 1 mps 742 mmHg 43%
    16:00 +20°C° 0 mm 1 mps 742 mmHg 44%
    17:00 +19°C° 0 mm 1 mps 742 mmHg 47%
    18:00 +18°C° 0 mm 1 mps 743 mmHg 49%
    19:00 +16°C° 0 mm 1 mps 743 mmHg 52%
    20:00 +15°C° 0 mm 1 mps 743 mmHg 54%
    21:00 +15°C° 0 mm 1 mps 743 mmHg 56%
    22:00 +14°C° 0 mm 1 mps 743 mmHg 57%
    23:00 +14°C° 0 mm 1 mps 743 mmHg 59%

    Tomorrow, 21 October, Saturday

    Time Temperature Precipitation Wind Pressure Humidity
    00:00 +14°C° 0 mm 1 mps 743 mmHg 61%
    01:00 +13°C° 0 mm 1 mps 743 mmHg 62%
    02:00 +13°C° 0 mm 1 mps 743 mmHg 64%
    03:00 +12°C° 0 mm 1 mps 743 mmHg 66%
    04:00 +12°C° 0 mm 1 mps 743 mmHg 68%
    05:00 +12°C° 0 mm 1 mps 743 mmHg 69%
    06:00 +12°C° 0 mm 1 mps 743 mmHg 70%
    07:00 +12°C° 0 mm 1 mps 743 mmHg 70%
    08:00 +14°C° 0 mm 1 mps 743 mmHg 65%
    09:00 +15°C° 0 mm 1 mps 743 mmHg 59%
    10:00 +18°C° 0 mm 1 mps 743 mmHg 53%
    11:00 +19°C° 0 mm 1 mps 743 mmHg 51%
    12:00 +19°C° 0 mm 1 mps 743 mmHg 49%
    13:00 +20°C° 0 mm 1 mps 743 mmHg 47%
    14:00 +20°C° 0 mm 1 mps 742 mmHg 48%
    15:00 +19°C° 0 mm 1 mps 742 mmHg 50%
    16:00 +19°C° 0 mm 1 mps 742 mmHg 52%
    17:00 +18°C° 0 mm 1 mps 742 mmHg 55%
    18:00 +16°C° 0 mm 1 mps 742 mmHg 59%
    19:00 +14°C° 0 mm 0 mps 742 mmHg 62%
    20:00 +13°C° 0 mm 0 mps 742 mmHg 63%
    21:00 +13°C° 0 mm 0 mps 742 mmHg 65%
    22:00 +13°C° 0 mm 0 mps 742 mmHg 66%
    23:00 +12°C° 0 mm 0 mps 742 mmHg 68%

    Day after tomorrow, 22 October, Sunday

    Time Temperature Precipitation Wind Pressure Humidity
    00:00 +12°C° 0 mm 0 mps 742 mmHg 69%
    01:00 +12°C° 0 mm 0 mps 742 mmHg 70%
    02:00 +12°C° 0 mm 0 mps 741 mmHg 71%
    03:00 +11°C° 0 mm 0 mps 741 mmHg 72%
    04:00 +12°C° 0 mm 1 mps 741 mmHg 73%
    05:00 +12°C° 0 mm 1 mps 741 mmHg 73%
    06:00 +12°C° 0 mm 1 mps 741 mmHg 73%
    07:00 +12°C° 0 mm 1 mps 741 mmHg 73%
    08:00 +14°C° 0 mm 1 mps 741 mmHg 68%
    09:00 +15°C° 0 mm 1 mps 741 mmHg 63%
    10:00 +16°C° 0 mm 1 mps 741 mmHg 57%
    11:00 +18°C° 0 mm 1 mps 741 mmHg 54%
    12:00 +19°C° 0 mm 1 mps 740 mmHg 52%
    13:00 +20°C° 0 mm 1 mps 740 mmHg 49%
    14:00 +19°C° 0 mm 1 mps 739 mmHg 51%
    15:00 +19°C° 0 mm 1 mps 739 mmHg 52%
    16:00 +19°C° 0 mm 1 mps 738 mmHg 54%
    17:00 +17°C° 0.1 mm 2 mps 738 mmHg 57%
    18:00 +16°C° 0.1 mm 2 mps 738 mmHg 60%
    19:00 +15°C° 0.1 mm 2 mps 738 mmHg 63%
    20:00 +15°C° 0.7 mm 2 mps 738 mmHg 67%
    21:00 +14°C° 0.7 mm 2 mps 737 mmHg 71%
    22:00 +14°C° 0.7 mm 2 mps 737 mmHg 74%
    23:00 +14°C° 0.5 mm 2 mps 737 mmHg 76%

    23 October, Monday

    Time Temperature Precipitation Wind Pressure Humidity
    00:00 +14°C° 0.5 mm 2 mps 737 mmHg 78%
    01:00 +14°C° 0.5 mm 2 mps 736 mmHg 79%
    02:00 +13°C° 2 mm 2 mps 736 mmHg 82%
    03:00 +12°C° 2 mm 3 mps 736 mmHg 84%
    04:00 +12°C° 2 mm 3 mps 735 mmHg 86%
    05:00 +12°C° 2.2 mm 3 mps 735 mmHg 86%
    06:00 +11°C° 2.2 mm 3 mps 735 mmHg 87%
    07:00 +11°C° 2.2 mm 3 mps 735 mmHg 87%
    08:00 +11°C° 2.4 mm 4 mps 735 mmHg 87%
    09:00 +11°C° 2.4 mm 4 mps 735 mmHg 87%
    10:00 +11°C° 2.4 mm 4 mps 735 mmHg 88%
    11:00 +11°C° 1.5 mm 4 mps 735 mmHg 88%
    12:00 +11°C° 1.5 mm 4 mps 735 mmHg 87%
    13:00 +11°C° 1.5 mm 4 mps 735 mmHg 87%
    14:00 +11°C° 1.4 mm 4 mps 735 mmHg 87%
    15:00 +11°C° 1.4 mm 4 mps 736 mmHg 87%
    16:00 +11°C° 1.4 mm 4 mps 736 mmHg 87%
    17:00 +11°C° 1.2 mm 4 mps 736 mmHg 87%
    18:00 +10°C° 1.2 mm 4 mps 737 mmHg 88%
    19:00 +10°C° 1.2 mm 4 mps 737 mmHg 88%
    20:00 +10°C° 1 mm 4 mps 737 mmHg 88%
    21:00 +10°C° 1 mm 4 mps 738 mmHg 88%
    22:00 +10°C° 1 mm 4 mps 738 mmHg 88%
    23:00 +10°C° 0.7 mm 4 mps 738 mmHg 88%

    24 October, Tuesday

    Time Temperature Precipitation Wind Pressure Humidity
    00:00 +9°C° 0.7 mm 5 mps 739 mmHg 87%
    01:00 +9°C° 0.7 mm 5 mps 739 mmHg 87%
    02:00 +9°C° 0.3 mm 5 mps 739 mmHg 86%
    03:00 +9°C° 0.3 mm 5 mps 740 mmHg 86%
    04:00 +9°C° 0.3 mm 5 mps 740 mmHg 86%
    05:00 +9°C° 0.2 mm 5 mps 740 mmHg 85%
    06:00 +9°C° 0.2 mm 5 mps 741 mmHg 85%
    07:00 +9°C° 0.2 mm 5 mps 741 mmHg 85%
    08:00 +9°C° 0.4 mm 5 mps 742 mmHg 84%
    09:00 +9°C° 0.4 mm 5 mps 742 mmHg 84%
    10:00 +9°C° 0.4 mm 5 mps 742 mmHg 83%
    11:00 +10°C° 0.4 mm 5 mps 742 mmHg 82%
    12:00 +10°C° 0.4 mm 5 mps 742 mmHg 81%
    13:00 +10°C° 0.4 mm 5 mps 743 mmHg 80%
    14:00 +10°C° 0.4 mm 5 mps 743 mmHg 81%
    15:00 +11°C° 0.4 mm 4 mps 743 mmHg 82%
    16:00 +11°C° 0.4 mm 4 mps 743 mmHg 82%
    17:00 +10°C° 0.6 mm 4 mps 743 mmHg 83%
    18:00 +10°C° 0.6 mm 4 mps 744 mmHg 84%
    19:00 +10°C° 0.6 mm 4 mps 744 mmHg 85%
    20:00 +10°C° 0.5 mm 3 mps 744 mmHg 85%
    21:00 +9°C° 0.5 mm 3 mps 744 mmHg 85%
    22:00 +9°C° 0.5 mm 3 mps 744 mmHg 86%
    23:00 +9°C° 0.2 mm 3 mps 745 mmHg 86%

    25 October, Wednesday

    Time Temperature Precipitation Wind Pressure Humidity
    00:00 +8°C° 0.2 mm 3 mps 745 mmHg 86%
    01:00 +8°C° 0.2 mm 3 mps 745 mmHg 86%
    02:00 +8°C° 0.1 mm 3 mps 745 mmHg 86%
    03:00 +8°C° 0.1 mm 3 mps 745 mmHg 86%
    04:00 +8°C° 0.1 mm 3 mps 745 mmHg 86%
    05:00 +8°C° 0 mm 3 mps 746 mmHg 85%
    06:00 +8°C° 0 mm 3 mps 746 mmHg 84%
    07:00 +8°C° 0 mm 3 mps 747 mmHg 84%
    08:00 +10°C° 0 mm 3 mps 747 mmHg 79%
    09:00 +11°C° 0 mm 3 mps 748 mmHg 74%
    10:00 +12°C° 0 mm 3 mps 748 mmHg 69%
    11:00 +13°C° 0 mm 3 mps 748 mmHg 64%
    12:00 +14°C° 0 mm 3 mps 748 mmHg 60%
    13:00 +16°C° 0 mm 3 mps 748 mmHg 55%
    14:00 +15°C° 0 mm 2 mps 749 mmHg 58%
    15:00 +15°C° 0 mm 2 mps 749 mmHg 60%
    16:00 +14°C° 0 mm 1 mps 749 mmHg 63%
    17:00 +13°C° 0 mm 2 mps 749 mmHg 66%
    18:00 +12°C° 0 mm 2 mps 750 mmHg 70%
    19:00 +12°C° 0 mm 2 mps 750 mmHg 73%
    20:00 +10°C° 0 mm 2 mps 750 mmHg 73%
    21:00 +11°C° 0 mm 1 mps 751 mmHg 73%
    22:00 +10°C° 0 mm 1 mps 751 mmHg 73%
    23:00 +10°C° 0 mm 1 mps 751 mmHg 73%
    Show more